Location: Shandelee
(41.8790°N, 74.8713°W)
Time: 03:20:55
(UTC+00:00)

Atlas Centaur 2 - Pass Details

Date: 29 October 2020
Orbit: 459 x 1309 km, 30.4° (Epoch: 23 November)

Event Time Altitude Azimuth Distance (km) Brightness Sun altitude
Rises 22:18:57 0° 237° (WSW) 3,977 7.4 -4.8°
Reaches altitude 10° 22:21:55 10° 228° (SW) 3,118 6.3 -5.3°
Maximum altitude 22:28:52 33° 168° (SSE) 2,001 4.2 -6.6°
Drops below altitude 10° 22:36:14 10° 109° (ESE) 3,319 4.8 -7.9°
Enters shadow 22:37:43 - 104° (ESE) 3,739 5.0 -8.2°
